RH
99 98 96 87 69 58 57 56 58 59 58 55 51 47 45 46 44 41 43 52 62 61 58 55 50 44 42 36 23 20 20 18 19 18 18 18 17 18 17 17 17 17 17 16 16 16 16 16 16 16 16 16
95 92 83 71 62 60 62 61 64 64 62 60 55 49 41 38 35 34 38 43 41 36 35 36 38 35 34 34 25 22 22 21 21 20 21 20 20 20 20 20 20 20 20 21 20 20 20 20 20 20 20 20
93 87 74 66 67 67 66 66 68 68 67 65 61 54 41 33 32 31 33 35 33 31 30 29 30 30 32 36 31 24 23 23 22 23 23 22 23 22 23 22 21 21 20 21 20 20 19 18 18 17 17 17
94 87 76 73 74 71 70 70 71 73 72 71 69 61 46 35 31 31 30 30 30 30 30 29 29 28 30 36 35 26 23 25 24 24 24 23 23 20 19 16 14 13 11 12 10 10 9 9 9 7 8 7
95 89 81 78 77 74 74 75 77 78 76 75 73 67 55 40 32 31 30 30 30 30 30 30 29 28 27 31 30 24 24 25 24 24 22 19 15 12 10 7 6 5 4 5 3 4 4 4 3 3 4 3
95 91 84 81 79 77 79 80 80 78 76 76 74 70 62 46 33 32 31 30 31 30 31 30 30 29 27 28 26 25 25 24 23 20 15 11 8 6 5 4 4 3 3 3 3 3 3 4 3 3 3 3
96 92 87 83 81 81 83 83 80 78 76 77 76 73 68 53 35 32 31 30 30 30 30 29 29 29 28 28 27 27 25 22 18 12 9 6 5 5 4 4 4 4 4 3 4 3 3 4 3 4 3 3
97 94 90 86 84 85 85 84 81 80 79 81 80 75 73 58 37 32 32 30 29 28 28 28 29 30 29 28 28 26 23 19 13 9 7 6 5 5 4 4 4 4 4 4 4 4 4 4 3 4 3 4
98 96 94 91 90 89 88 87 84 84 84 83 81 78 76 61 40 34 33 30 29 26 25 27 28 29 29 28 27 24 19 14 10 8 7 6 5 5 5 5 5 5 5 5 4 5 4 4 4 4 4 4
99 97 96 95 95 94 91 90 88 88 87 84 81 79 77 61 43 38 36 32 29 26 24 24 26 27 28 26 24 20 16 12 9 8 7 6 6 5 6 5 6 5 5 5 5 5 5 5 5 5 5 5
100 99 97 96 95 94 92 91 90 90 88 84 83 82 77 61 47 44 40 35 30 26 24 23 24 24 25 23 21 16 13 11 8 8 7 6 6 6 7 6 7 6 6 6 6 6 5 6 5 6 6 5
100 100 99 98 96 95 94 94 92 91 88 86 85 82 74 61 52 49 43 38 33 28 24 22 22 22 22 20 17 14 11 10 9 9 8 7 7 7 7 7 7 7 7 7 6 7 6 7 6 6 6 6
100 100 100 99 98 98 97 95 93 92 90 89 87 80 73 65 57 51 46 42 36 30 25 22 21 20 19 17 14 12 10 10 9 9 8 7 7 7 8 8 8 8 8 7 7 7 7 7 7 7 7 7
100 99 99 99 99 99 97 94 92 91 89 89 86 80 75 71 63 55 50 46 39 32 27 23 21 19 18 16 14 12 10 10 9 9 8 7 7 8 8 8 9 8 8 8 8 8 8 8 8 8 8 7
98 98 98 99 100 100 96 93 90 88 88 88 85 81 79 76 69 61 53 49 43 36 30 25 22 19 18 16 14 12 11 10 9 9 8 8 7 8 9 9 9 8 9 9 8 9 8 9 9 9 9 8
97 97 98 99 100 99 95 90 88 87 88 87 85 83 81 80 74 64 56 51 45 39 33 28 24 20 18 17 15 13 11 11 10 9 8 8 8 8 9 9 9 9 9 9 9 10 9 10 10 10 11 10
96 96 98 99 100 98 93 89 87 86 86 87 86 84 83 82 77 67 60 54 48 42 37 32 28 23 20 18 16 14 12 12 10 10 9 8 9 9 9 9 10 10 10 10 10 10 10 11 11 11 12 12
95 96 97 99 99 97 92 88 86 84 84 87 86 85 85 82 77 70 63 58 52 47 41 36 31 27 24 20 17 16 14 13 11 11 9 9 9 9 10 10 10 11 10 11 11 11 12 12 12 13 13 13
96 95 95 95 95 94 91 87 85 84 84 86 86 85 85 82 76 71 65 61 57 53 47 41 35 31 29 25 21 18 16 14 12 11 10 9 10 10 11 11 11 12 12 12 12 12 12 13 13 13 14 14
97 95 95 94 92 90 89 88 87 86 85 85 86 86 85 81 75 71 68 65 61 58 53 46 40 36 33 30 26 22 19 17 15 13 11 10 10 11 12 12 12 12 13 13 13 14 14 14 14 14 15 15
98 97 96 94 93 91 91 90 91 89 88 88 88 86 83 78 75 73 71 69 65 62 59 54 49 44 39 35 30 27 24 20 18 16 13 11 11 12 12 13 13 13 14 14 14 15 15 15 16 16 16 16
100 99 96 95 93 94 95 94 94 93 91 90 89 85 80 77 76 76 75 73 70 68 66 64 59 53 47 41 36 32 29 25 22 19 16 14 12 12 13 14 14 15 15 16 16 16 16 17 17 17 18 18
100 100 98 97 96 96 99 98 97 98 94 90 88 84 80 80 80 79 77 77 76 74 73 70 66 61 54 48 42 38 35 31 26 22 19 17 14 13 14 14 15 16 16 16 17 17 18 18 19 19 20 20
100 101 100 100 99 98 98 99 99 99 95 88 85 84 82 82 82 80 80 81 81 80 78 75 71 67 63 58 51 45 40 35 32 29 26 22 19 16 14 15 16 17 17 18 18 19 20 20 21 22 21 22
98 99 99 99 100 98 97 99 99 99 95 86 82 84 85 84 84 83 83 84 84 84 82 78 75 72 69 65 58 51 45 41 40 38 34 30 26 20 16 16 17 18 18 19 19 20 21 22 22 23 23 24
95 95 95 95 96 96 96 97 96 93 88 82 78 82 85 85 86 86 86 85 86 86 83 80 77 74 73 70 64 58 54 50 47 43 40 36 31 25 19 17 17 19 19 19 20 21 23 24 24 25 24 25
89 90 92 93 93 94 94 95 92 87 83 79 77 79 82 84 87 88 88 87 86 84 83 80 79 78 78 76 72 67 63 58 53 48 45 41 36 31 25 20 18 19 20 20 21 24 25 25 26 26 24 24
82 88 94 95 94 94 94 95 92 87 83 80 77 78 80 83 86 88 88 88 86 83 82 81 81 81 81 80 77 74 70 65 60 55 50 47 43 39 33 25 20 19 20 21 22 25 26 27 29 28 24 23
83 92 97 97 96 95 95 94 92 87 83 79 77 76 76 80 84 88 89 90 88 85 83 82 81 81 81 81 79 77 74 70 66 61 57 53 49 46 42 34 27 22 20 21 22 24 26 28 30 28 25 24
80 92 98 99 97 96 94 92 90 86 82 78 75 72 72 77 82 86 89 90 89 86 85 84 82 82 81 80 79 78 76 73 70 67 62 58 54 50 48 44 38 30 24 22 23 25 26 27 28 28 27 26
73 86 93 97 97 95 92 90 88 85 81 77 74 72 72 76 79 82 86 89 88 86 85 84 83 82 81 80 79 78 77 75 72 68 64 61 58 54 52 49 46 40 32 26 24 24 26 28 29 28 29 29
Wind_Speed
19 18 17 15 15 15 13 11 9 7 5 4 4 4 3 4 4 3 4 5 6 5 3 3 2 2 2 4 6 5 4 4 3 2 2 2 2 2 1 1 1 1 2 1 1 1 1 1 2 2 1 1
20 18 17 16 16 15 13 11 9 7 6 5 5 4 5 6 5 4 5 6 5 5 3 2 1 1 1 3 5 5 4 3 3 2 1 1 1 1 1 1 1 1 1 1 1 1 0 1 1 1 1 1
19 17 17 17 16 15 13 12 10 8 7 6 5 5 6 6 6 6 7 7 7 6 4 3 3 3 3 2 4 4 4 3 2 2 1 1 1 1 1 0 1 1 1 1 1 0 0 0 0 1 1 1
19 18 18 17 16 16 15 13 11 10 8 8 7 6 7 7 7 7 7 8 7 6 5 5 4 4 4 2 2 2 3 3 2 2 1 1 1 1 1 0 0 0 1 1 1 1 0 1 0 1 1 1
21 20 19 18 18 17 16 14 13 11 10 9 8 8 8 8 8 7 8 8 7 6 6 6 5 5 4 3 2 1 2 2 2 2 2 1 1 1 1 0 0 0 0 0 1 1 1 1 1 1 1 2
23 22 21 20 19 18 17 15 13 12 10 10 9 9 9 9 9 8 8 8 7 7 7 7 6 5 5 4 3 2 2 2 2 2 2 1 1 1 1 0 0 0 0 0 1 1 1 1 1 1 2 2
25 24 22 21 20 19 18 16 14 12 11 11 11 11 11 10 10 9 8 8 8 8 8 7 6 6 5 5 5 4 4 3 2 2 2 2 2 1 1 1 0 0 0 1 1 1 2 2 2 2 2 2
27 26 23 22 21 20 19 17 15 14 14 13 13 12 12 12 11 10 9 9 9 9 8 8 7 7 6 6 6 6 5 4 4 3 3 2 2 1 1 1 1 1 1 1 1 1 2 2 2 2 2 2
29 27 25 24 23 22 20 18 17 16 16 15 14 14 13 13 12 11 10 10 9 9 8 8 8 8 8 8 7 7 7 6 5 4 4 3 2 2 1 1 0 0 1 1 1 1 1 1 2 2 1 2
30 29 27 26 25 24 23 21 19 18 17 16 16 16 15 14 13 11 10 10 10 9 9 9 9 9 9 9 9 8 8 7 6 5 4 4 3 2 2 1 1 1 1 1 1 1 1 1 1 1 1 1
31 30 28 27 26 26 25 23 22 20 19 18 18 18 16 14 13 11 11 11 10 9 9 10 10 10 10 10 10 9 9 8 7 6 5 4 4 3 3 2 2 2 2 2 1 2 1 2 2 2 2 1
32 31 29 28 27 27 26 25 23 21 20 19 19 18 17 15 13 12 12 11 10 10 10 10 11 11 11 11 11 10 10 9 8 7 6 5 5 4 4 3 3 3 3 3 2 2 2 2 3 2 3 2
33 31 30 30 29 28 27 25 24 22 21 21 20 19 17 16 14 13 12 11 11 10 10 11 12 12 12 12 12 11 11 10 9 8 7 6 6 5 5 5 4 4 4 4 4 4 4 4 3 3 3 3
34 32 32 31 31 30 28 26 24 23 23 22 21 20 18 17 15 14 13 12 12 11 11 12 12 13 13 13 13 12 12 11 10 9 8 8 7 7 6 6 6 6 6 6 5 5 5 5 5 4 4 4
35 34 34 32 32 31 29 27 25 24 24 23 22 21 19 18 17 15 14 14 13 12 12 12 13 13 14 14 14 13 13 12 12 10 10 9 9 8 7 7 7 7 7 7 7 7 6 6 6 6 5 5
37 36 34 34 33 31 29 27 26 25 25 24 23 22 21 20 18 17 16 15 14 13 13 13 13 14 14 14 15 14 14 13 13 12 11 10 10 9 9 9 9 8 8 8 8 8 8 7 7 7 6 6
38 36 35 35 33 32 30 28 27 26 26 25 24 23 22 21 20 19 18 17 15 15 15 14 14 14 14 15 15 15 15 14 13 13 12 11 11 11 10 10 10 10 10 10 9 9 9 8 8 8 7 7
39 37 36 35 34 33 31 29 28 27 27 27 26 25 24 23 22 21 19 19 17 17 16 16 15 14 14 15 16 16 16 15 15 14 13 13 12 12 12 12 11 11 11 11 10 10 10 10 9 9 8 8
39 38 37 36 35 34 33 31 30 30 29 28 27 26 25 24 24 22 21 20 19 19 18 17 16 15 15 16 17 17 17 17 16 16 15 14 14 13 13 13 12 12 12 12 12 11 11 11 10 10 9 8
40 39 38 38 36 36 35 34 33 32 31 30 29 28 27 26 25 24 23 22 21 21 20 19 17 16 16 16 17 18 18 18 17 16 16 15 15 14 14 14 13 13 13 13 13 12 12 12 11 11 10 10
42 41 40 40 39 39 39 38 37 34 32 31 30 29 28 27 27 26 25 24 23 23 22 20 19 18 18 18 18 19 19 19 18 18 17 16 16 16 16 15 15 15 14 14 14 14 13 12 12 11 11 10
45 43 41 41 41 41 42 41 39 37 35 33 32 31 30 29 29 28 26 25 25 24 23 22 21 21 20 20 20 20 20 20 19 19 19 18 17 17 17 16 16 15 15 15 15 15 14 13 13 12 12 11
46 45 44 44 43 44 44 43 42 40 37 35 33 33 32 31 30 29 28 27 27 26 25 25 24 23 23 23 22 21 21 21 21 20 20 19 18 18 18 17 17 17 17 18 17 16 15 15 14 14 13 12
48 48 48 48 47 46 47 45 44 42 39 37 36 35 34 33 32 31 30 29 29 28 27 27 26 26 26 25 25 24 23 22 21 20 20 19 19 19 19 19 19 19 20 19 18 17 17 16 15 15 15 14
50 51 50 50 50 49 48 46 45 43 42 40 39 38 36 35 34 33 33 32 31 30 30 29 29 29 28 28 27 26 25 23 22 21 21 21 21 21 21 21 20 20 21 20 19 19 18 18 17 16 16 15
52 52 51 50 49 47 46 45 45 44 43 42 41 40 38 37 36 36 35 34 33 32 32 32 32 31 31 30 29 28 26 25 25 24 23 23 23 23 23 22 22 22 22 22 20 19 19 18 18 19 18 17
52 51 50 48 47 45 44 45 44 44 43 43 43 42 40 39 38 37 36 35 35 34 34 34 34 33 32 32 31 30 29 28 28 27 26 25 25 25 25 24 24 24 25 23 21 20 20 19 18 19 21 21
50 50 49 48 47 46 46 46 45 45 45 45 45 44 42 41 39 38 37 37 37 37 36 36 35 35 34 33 33 32 32 31 30 29 28 27 26 27 27 26 26 26 26 25 23 21 19 19 18 18 19 20
49 49 49 49 49 49 50 50 49 48 48 47 46 45 44 42 40 39 39 39 39 38 38 37 36 36 36 35 35 34 34 34 33 32 31 29 29 29 28 28 28 27 27 27 27 24 20 19 18 18 19 17
48 49 50 51 52 52 52 53 53 51 50 48 47 45 43 42 41 40 40 40 40 40 39 39 38 37 37 37 36 36 36 35 35 34 33 32 31 30 29 29 30 30 29 28 29 29 28 25 22 20 18 16
48 49 51 52 52 53 53 53 53 51 49 48 47 46 44 43 43 42 41 41 41 41 40 40 39 39 39 38 38 38 38 38 37 36 35 34 34 32 31 32 33 32 31 31 32 31 32 33 31 27 22 19
Wind_Direction
195 193 187 181 190 204 203 203 210 215 231 260 289 290 255 234 217 200 193 183 168 168 158 140 137 124 117 120 125 128 123 115 109 107 116 125 123 117 119 109 100 96 93 88 78 68 71 74 79 78 70 51
207 205 197 194 203 208 207 209 214 223 235 253 270 272 262 256 249 236 220 217 218 224 230 237 232 207 213 141 131 134 130 130 131 143 161 149 142 123 155 148 105 110 106 104 103 79 66 60 63 75 61 40
214 211 206 206 212 215 217 219 222 231 240 253 272 283 275 262 248 243 237 238 247 253 257 261 257 241 233 173 136 134 133 146 158 169 190 169 153 145 192 187 122 140 124 125 128 107 95 49 21 43 40 40
220 218 215 216 223 226 226 227 230 236 244 259 280 293 288 271 255 249 248 250 258 264 267 264 255 244 240 203 160 138 135 158 178 177 202 201 184 175 195 196 153 153 135 131 131 120 107 78 32 41 34 37
222 221 222 223 227 227 228 230 233 240 250 264 280 293 293 280 263 255 256 260 266 266 265 263 256 247 244 234 234 218 151 165 198 211 221 224 229 212 210 222 202 230 152 128 115 109 101 83 56 51 38 41
225 223 223 225 225 225 227 231 238 248 257 269 280 291 293 281 265 258 261 266 265 263 263 262 255 247 244 246 253 259 237 210 220 233 241 243 249 246 247 244 230 281 103 100 104 97 93 88 71 62 52 47
229 226 224 225 226 225 230 237 245 253 261 270 278 286 287 278 265 261 264 268 267 264 262 261 256 252 249 252 255 258 258 251 247 252 257 259 265 260 242 207 160 146 93 72 74 81 82 83 78 69 61 53
229 227 227 228 228 230 236 243 249 253 260 265 271 279 282 276 265 263 268 271 272 269 266 263 259 256 254 253 254 258 263 264 264 265 267 270 266 259 240 192 143 123 97 75 63 65 70 75 79 75 67 59
227 227 230 231 232 236 241 245 247 251 256 259 266 274 277 273 265 264 271 275 275 273 269 265 259 255 253 253 255 259 262 264 266 268 272 273 270 267 262 254 136 107 76 70 57 50 56 57 66 65 65 61
229 231 233 234 236 240 243 245 246 250 254 258 266 271 272 270 266 266 273 278 278 275 269 263 259 255 253 253 255 258 261 264 267 270 271 272 272 274 278 290 315 337 7 15 22 15 17 15 18 26 25 37
232 234 236 238 239 243 245 246 247 250 254 259 265 268 269 268 266 267 273 279 280 278 270 263 258 254 253 253 255 257 259 263 265 267 267 268 270 272 279 287 299 309 325 323 333 332 330 335 329 336 328 332
232 234 236 238 240 243 244 245 248 252 254 258 262 262 263 265 265 267 271 277 280 278 269 262 256 252 252 253 256 257 259 261 262 263 262 263 265 267 274 279 289 295 302 302 305 306 303 306 303 309 306 305
231 234 236 238 240 242 242 246 248 251 253 256 257 257 260 264 267 268 270 274 276 277 271 263 256 252 252 252 255 256 257 259 258 259 260 261 262 264 270 276 284 288 292 294 296 297 296 297 296 295 295 296
232 234 237 238 239 240 242 246 248 250 252 254 254 255 258 263 267 268 268 269 273 276 273 266 258 253 251 252 254 255 256 255 255 255 257 258 258 261 265 270 277 281 286 287 289 292 292 293 293 293 290 291
233 235 236 237 238 240 242 245 247 250 251 252 253 254 256 260 264 265 265 267 271 275 273 268 261 255 252 252 252 253 253 252 252 251 252 253 254 256 259 264 269 272 277 280 283 284 287 289 287 289 286 286
234 235 236 236 237 239 242 245 248 250 250 251 253 253 255 258 261 262 263 265 270 274 273 269 262 257 252 252 251 251 252 251 251 250 250 250 251 253 255 259 262 266 269 271 275 276 277 280 280 282 282 282
234 235 235 236 237 239 242 245 249 251 252 252 252 252 254 256 259 261 262 264 268 271 272 269 264 259 254 251 251 251 252 251 252 251 250 249 249 251 252 254 257 259 262 264 266 268 269 272 273 274 275 277
234 236 236 236 237 239 242 246 250 253 254 252 251 252 253 255 258 259 261 262 265 268 270 270 266 262 258 254 253 253 253 253 251 250 249 247 247 248 250 251 252 253 255 257 259 260 262 264 265 266 268 269
236 237 238 238 239 241 243 246 250 253 252 252 252 252 252 255 257 258 259 261 263 266 268 269 268 266 262 258 255 253 253 252 250 250 248 247 245 246 247 248 249 251 251 252 253 254 255 257 259 260 261 263
237 239 239 239 242 244 245 247 248 249 250 251 251 251 252 254 256 257 258 259 262 264 266 268 268 268 264 260 257 254 253 251 250 250 249 247 245 245 247 247 247 247 248 248 249 249 250 251 253 255 257 258
237 239 240 240 242 244 245 245 247 248 249 249 250 250 252 254 255 256 256 258 261 263 264 266 267 266 264 261 259 256 254 252 251 250 249 247 245 245 244 245 245 245 245 246 246 247 247 248 249 251 254 255
238 239 241 242 244 245 245 245 246 247 247 248 249 250 251 253 254 255 256 257 259 261 262 264 264 264 263 261 260 257 256 254 252 250 248 247 245 245 244 243 244 243 243 242 243 244 244 246 246 247 250 251
238 239 240 240 241 244 244 244 245 245 246 248 248 249 250 251 252 254 255 256 257 259 260 262 262 263 262 262 261 259 258 255 253 251 250 250 249 248 246 244 241 240 239 239 239 240 240 242 243 244 246 247
236 237 237 238 239 241 243 243 244 246 247 248 247 247 248 250 251 253 254 255 256 257 259 261 262 262 262 261 261 260 260 260 259 258 256 256 255 252 249 245 242 239 239 240 239 239 238 238 239 241 243 244
237 236 236 237 238 241 243 244 245 246 246 247 246 246 247 249 250 252 253 254 255 256 258 260 260 260 260 259 260 262 263 264 264 261 257 254 252 250 248 246 243 242 241 241 240 239 240 240 241 241 242 244
240 240 240 241 242 243 246 246 247 247 247 248 248 247 247 249 250 251 253 254 255 256 258 259 259 259 260 260 261 263 263 263 261 260 256 253 250 249 247 245 243 241 241 241 241 241 242 244 243 243 244 244
243 244 244 244 246 247 249 250 250 250 250 249 248 248 249 249 250 252 254 255 256 257 257 258 259 260 260 260 261 261 261 261 261 260 259 256 253 251 249 246 243 241 240 240 239 239 240 243 245 245 245 244
246 247 246 246 246 247 248 249 250 249 248 247 247 247 248 249 250 253 256 257 257 256 257 258 259 260 260 260 261 261 261 261 261 261 261 260 257 254 251 250 247 244 242 240 237 234 234 237 241 244 247 247
245 245 244 243 243 243 243 243 244 244 243 244 245 246 248 250 252 254 256 256 256 256 257 258 259 260 260 260 260 260 261 261 262 262 262 261 260 257 256 255 253 249 246 245 241 236 231 230 234 241 247 249
244 243 243 242 241 240 240 240 242 243 244 246 248 250 252 253 254 256 257 257 257 257 257 257 258 259 260 260 260 260 261 261 261 261 261 261 260 260 259 257 255 252 249 248 244 240 238 237 239 243 245 244
242 242 242 243 244 244 244 245 247 248 250 251 253 255 255 256 257 258 259 259 259 258 257 258 258 259 260 260 261 261 261 261 261 263 263 262 262 261 260 257 255 253 251 249 246 244 243 243 244 245 245 243